logo
Rechercher aéroport 
image banner adimage banner adimage banner ad
image banner ad

50CA - St Mary Medical Center

Situé à Long Beach, United States

ICAO - 50CA, IATA -

Données fournies par Airmate  

Information générale

Coordonnées: N33°46'50" W118°11'9"
Élévation : 174 feet MSL.
Variation magnétique : 14° East
Voir autres Aéroports à California

Données opérationnelles

Special qualification required
Heure actuelle UTC:
Heure actuelle locale:
METAR: KLGB 261553Z 00000KT 9SM CLR 24/17 A2992 RMK AO2 SLP131 T02440167
TAF: KLGB 261125Z 2612/2712 VRB03KT P6SM SKC FM262000 30010KT P6SM SKC FM270500 VRB03KT P6SM SKC
Voir NOTAMs / SUP AIP / TFR affectant cet aéroport [VIEW]
Fréquences de communication: [VIEW]

Pistes:

Coordonnées de l'aéroport

Adresse: Long Beach United States

Vue satellite de 50CA